Kezdőlap
METAR-TAF:

METAR-TAF

Repülőterek :

Pella Municipal Airport

Pella, Iowa, Amerikai Egyesült Államok

földrajzi szélesség: 41-24N, földrajzi hosszúság: 092-56W, magasság: 270 m

Jelenlegi meteorológiai megfigyelések

A jelentés 27 perccel ezelõtt készült, 14:15 UTC
Nyugati szél 5 kt
Hőmérséklet 28°C
Páratartalom 70%
Légköri nyomás 1018 hPa
Látótávolság: 16.1 km

METAR: KPEA 281415Z AUTO 26005KT 10SM 28/22 A3007 RMK AO2 T02830220

Idő: 09:42 (14:42 UTC)


TAF: hiányzik

Meteorológiai megfigyelések és előrejelzések több, mint 4000 repülőtéren (METAR és TAF jelentéseket).

A térképen piros és sárga pontok jelzik az elérhető meteorológiai állomásokat.

Mozgassa az egeret a pont fölött, hogy megjelenjen az állomás neve.

Azután kattintson az időjárási megfigyelések és előrejelzések megtekintéséhez.

A térkép megváltoztatása: kattintson a fekete keresztel jelölt zöld gombra ráközelítéshez, a vonallal jelölt zöld gombra távolításhoz, vagy a zöld nyilakra a szomszédos térképek eléréséhez.


METAR-TAF: